When you browse on this site, cookies collect data to enhance your experience and personalize the content and advertising you see.
Visit our Privacy Policy to learn more. By continuing to use the site, you agree to this use of cookies and data.
  • In France
  • List of Countries
  • For 7 days
  • Water Temperature
  • Weather Map
  • Weather Widgets
  • user-avatar
    Login

    Hourly Weather Quito

    Today, 19 February, Wednesday

    Time Temperature Precipitation Wind Pressure Humidity
    00:00 +18°C° 0.5 mm 2 mps 622 mmHg 94%
    01:00 +18°C° 0 mm 2 mps 622 mmHg 95%
    02:00 +18°C° 2.1 mm 2 mps 622 mmHg 96%
    03:00 +18°C° 2.1 mm 2 mps 621 mmHg 96%
    04:00 +18°C° 2.1 mm 2 mps 621 mmHg 97%
    05:00 +18°C° 1.9 mm 2 mps 621 mmHg 97%
    06:00 +18°C° 1.9 mm 2 mps 622 mmHg 97%
    07:00 +19°C° 0 mm 1 mps 623 mmHg 96%
    08:00 +20°C° 0.8 mm 1 mps 623 mmHg 95%
    09:00 +19°C° 0.8 mm 2 mps 623 mmHg 93%
    10:00 +20°C° 0.8 mm 2 mps 623 mmHg 91%
    11:00 +20°C° 0.5 mm 2 mps 623 mmHg 91%
    12:00 +20°C° 0.5 mm 2 mps 623 mmHg 90%
    13:00 +20°C° 0.5 mm 2 mps 622 mmHg 90%
    14:00 +21°C° 0.3 mm 1 mps 621 mmHg 89%
    15:00 +21°C° 0.3 mm 1 mps 621 mmHg 88%
    16:00 +21°C° 0.3 mm 1 mps 620 mmHg 88%
    17:00 +20°C° 0.1 mm 1 mps 620 mmHg 89%
    18:00 +19°C° 0.1 mm 1 mps 621 mmHg 91%
    19:00 +19°C° 0.1 mm 1 mps 621 mmHg 93%
    20:00 +19°C° 0.1 mm 1 mps 621 mmHg 92%
    21:00 +18°C° 0.1 mm 2 mps 622 mmHg 92%
    22:00 +18°C° 0.1 mm 2 mps 622 mmHg 92%
    23:00 +18°C° 0.1 mm 1 mps 622 mmHg 93%

    Tomorrow, 20 February, Thursday

    Time Temperature Precipitation Wind Pressure Humidity
    00:00 +18°C° 0.1 mm 1 mps 622 mmHg 94%
    01:00 +18°C° 0.1 mm 1 mps 622 mmHg 95%
    02:00 +18°C° 0.6 mm 1 mps 622 mmHg 95%
    03:00 +17°C° 0.6 mm 2 mps 622 mmHg 96%
    04:00 +17°C° 0.6 mm 2 mps 621 mmHg 96%
    05:00 +17°C° 0.2 mm 2 mps 622 mmHg 96%
    06:00 +18°C° 0.2 mm 1 mps 622 mmHg 96%
    07:00 +18°C° 0.2 mm 1 mps 623 mmHg 96%
    08:00 +19°C° 0.3 mm 1 mps 623 mmHg 95%
    09:00 +19°C° 0.3 mm 1 mps 623 mmHg 93%
    10:00 +20°C° 0.3 mm 1 mps 624 mmHg 91%
    11:00 +20°C° 0.4 mm 2 mps 623 mmHg 87%
    12:00 +21°C° 0.4 mm 2 mps 623 mmHg 84%
    13:00 +22°C° 0.4 mm 3 mps 623 mmHg 80%
    14:00 +22°C° 0.6 mm 3 mps 622 mmHg 80%
    15:00 +22°C° 0.6 mm 3 mps 622 mmHg 80%
    16:00 +22°C° 0.6 mm 3 mps 621 mmHg 80%
    17:00 +21°C° 0.1 mm 2 mps 621 mmHg 85%
    18:00 +20°C° 0.1 mm 1 mps 621 mmHg 89%
    19:00 +17°C° 0.1 mm 0 mps 621 mmHg 94%
    20:00 +17°C° 0.3 mm 0 mps 621 mmHg 94%
    21:00 +17°C° 0.3 mm 0 mps 621 mmHg 94%
    22:00 +17°C° 0.3 mm 0 mps 622 mmHg 94%
    23:00 +16°C° 0 mm 0 mps 621 mmHg 95%

    Day after tomorrow, 21 February, Friday

    Time Temperature Precipitation Wind Pressure Humidity
    00:00 +16°C° 0 mm 0 mps 621 mmHg 95%
    01:00 +16°C° 0 mm 0 mps 621 mmHg 95%
    02:00 +16°C° 0 mm 0 mps 621 mmHg 96%
    03:00 +16°C° 0 mm 0 mps 621 mmHg 96%
    04:00 +15°C° 0 mm 0 mps 620 mmHg 96%
    05:00 +16°C° 0 mm 0 mps 621 mmHg 94%
    06:00 +18°C° 0 mm 1 mps 622 mmHg 92%
    07:00 +19°C° 0 mm 1 mps 622 mmHg 90%
    14:00 +24°C° 0.6 mm 2 mps 621 mmHg 77%
    15:00 +25°C° 1.5 mm 1 mps 622 mmHg 77%
    16:00 +23°C° 1.5 mm 0 mps 621 mmHg 77%
    17:00 +23°C° 1.9 mm 1 mps 621 mmHg 82%
    18:00 +21°C° 1.9 mm 2 mps 621 mmHg 88%
    19:00 +19°C° 1.9 mm 2 mps 621 mmHg 93%
    20:00 +19°C° 0.4 mm 2 mps 621 mmHg 93%
    21:00 +18°C° 0.4 mm 2 mps 621 mmHg 94%
    22:00 +18°C° 0.4 mm 2 mps 622 mmHg 95%
    23:00 +18°C° 0.1 mm 2 mps 622 mmHg 95%

    22 February, Saturday

    Time Temperature Precipitation Wind Pressure Humidity
    00:00 +18°C° 0.1 mm 2 mps 621 mmHg 94%
    01:00 +18°C° 0.1 mm 2 mps 621 mmHg 94%
    02:00 +18°C° 0 mm 2 mps 621 mmHg 95%
    03:00 +17°C° 0 mm 2 mps 621 mmHg 95%
    04:00 +18°C° 0 mm 1 mps 621 mmHg 96%
    05:00 +18°C° 0.3 mm 2 mps 621 mmHg 95%
    06:00 +18°C° 0.3 mm 2 mps 622 mmHg 94%
    07:00 +18°C° 0.3 mm 2 mps 622 mmHg 93%
    08:00 +19°C° 0.4 mm 2 mps 622 mmHg 91%
    09:00 +21°C° 0.4 mm 1 mps 623 mmHg 88%
    10:00 +22°C° 0.4 mm 1 mps 623 mmHg 85%
    11:00 +24°C° 0.5 mm 1 mps 623 mmHg 79%
    12:00 +26°C° 0.5 mm 1 mps 623 mmHg 72%
    13:00 +27°C° 0.5 mm 1 mps 623 mmHg 65%
    14:00 +27°C° 0.8 mm 1 mps 622 mmHg 68%
    15:00 +26°C° 0.8 mm 1 mps 622 mmHg 70%
    16:00 +26°C° 0.8 mm 1 mps 621 mmHg 73%
    17:00 +24°C° 0.8 mm 1 mps 621 mmHg 78%
    18:00 +22°C° 0.8 mm 1 mps 621 mmHg 83%
    19:00 +20°C° 0.8 mm 1 mps 621 mmHg 87%
    20:00 +20°C° 0.1 mm 1 mps 621 mmHg 89%
    21:00 +19°C° 0.1 mm 1 mps 621 mmHg 90%
    22:00 +18°C° 0.1 mm 2 mps 621 mmHg 91%
    23:00 +17°C° 0 mm 2 mps 621 mmHg 92%

    23 February, Sunday

    Time Temperature Precipitation Wind Pressure Humidity
    00:00 +18°C° 0 mm 1 mps 621 mmHg 92%
    01:00 +18°C° 0 mm 1 mps 620 mmHg 93%
    02:00 +18°C° 0 mm 1 mps 620 mmHg 93%
    03:00 +18°C° 0 mm 1 mps 620 mmHg 94%
    04:00 +18°C° 0 mm 1 mps 620 mmHg 94%
    05:00 +18°C° 0.1 mm 1 mps 621 mmHg 94%
    06:00 +19°C° 0.1 mm 1 mps 621 mmHg 93%
    07:00 +19°C° 0.1 mm 1 mps 622 mmHg 93%
    08:00 +19°C° 0.7 mm 2 mps 622 mmHg 90%
    09:00 +20°C° 0.7 mm 2 mps 623 mmHg 88%
    10:00 +21°C° 0.7 mm 3 mps 623 mmHg 85%
    11:00 +22°C° 0.9 mm 3 mps 623 mmHg 81%
    12:00 +24°C° 0.9 mm 3 mps 623 mmHg 77%
    13:00 +25°C° 0.9 mm 4 mps 622 mmHg 73%
    14:00 +24°C° 0.9 mm 3 mps 622 mmHg 75%
    15:00 +24°C° 0.9 mm 3 mps 622 mmHg 76%
    16:00 +24°C° 0.9 mm 3 mps 621 mmHg 78%
    17:00 +22°C° 0.2 mm 3 mps 621 mmHg 82%
    18:00 +20°C° 0.2 mm 2 mps 621 mmHg 87%
    19:00 +18°C° 0.2 mm 2 mps 621 mmHg 91%
    20:00 +18°C° 0.2 mm 2 mps 621 mmHg 91%
    21:00 +18°C° 0.2 mm 2 mps 621 mmHg 91%
    22:00 +17°C° 0.2 mm 2 mps 622 mmHg 91%
    23:00 +17°C° 0 mm 2 mps 621 mmHg 91%

    24 February, Monday

    Time Temperature Precipitation Wind Pressure Humidity
    00:00 +17°C° 0 mm 2 mps 621 mmHg 91%
    01:00 +17°C° 0 mm 2 mps 621 mmHg 91%
    02:00 +17°C° 0 mm 3 mps 620 mmHg 90%
    03:00 +17°C° 0 mm 3 mps 620 mmHg 88%
    04:00 +17°C° 0 mm 3 mps 620 mmHg 87%
    05:00 +17°C° 0.1 mm 3 mps 620 mmHg 87%
    06:00 +17°C° 0.1 mm 3 mps 621 mmHg 88%
    07:00 +17°C° 0.1 mm 3 mps 621 mmHg 89%
    08:00 +18°C° 0 mm 3 mps 622 mmHg 82%
    09:00 +20°C° 0 mm 3 mps 623 mmHg 76%
    10:00 +22°C° 0 mm 3 mps 624 mmHg 70%
    11:00 +24°C° 0.1 mm 3 mps 624 mmHg 66%
    12:00 +25°C° 0.1 mm 3 mps 624 mmHg 63%
    13:00 +26°C° 0.1 mm 3 mps 624 mmHg 59%
    14:00 +25°C° 0.8 mm 3 mps 623 mmHg 64%
    15:00 +25°C° 0.8 mm 3 mps 622 mmHg 69%
    16:00 +24°C° 0.8 mm 3 mps 622 mmHg 74%
    17:00 +21°C° 0.2 mm 3 mps 621 mmHg 78%
    18:00 +19°C° 0.2 mm 3 mps 621 mmHg 83%
    19:00 +18°C° 0.2 mm 3 mps 621 mmHg 88%
    20:00 +17°C° 0 mm 3 mps 621 mmHg 90%
    21:00 +17°C° 0 mm 3 mps 622 mmHg 91%
    22:00 +16°C° 0 mm 3 mps 622 mmHg 93%
    23:00 +16°C° 0 mm 3 mps 622 mmHg 93%
    Show more